Date_Time,Julian_Date,Latitude,Longitude,Instrument_Depth,U,V,Speed,Direction
(yyyy-mm-dd hh:mn:ss UTC),(JD),(+ deg. North),(+ deg. East),(m),(cm/s),(cm/s),(cm/s),(deg True)
1980-07-17 16:00:00 UTC,2444438.166667,25.9900,-96.1517,0700,-0.12,-1.49,1.4948,184.6045
1980-07-17 16:30:00 UTC,2444438.187500,25.9900,-96.1517,0700,-0.21,-1.48,1.4948,188.0759
1980-07-17 17:00:00 UTC,2444438.208333,25.9900,-96.1517,0700,-0.32,-1.46,1.4947,192.3625
1980-07-17 17:30:00 UTC,2444438.229167,25.9900,-96.1517,0700,-0.46,-1.43,1.5022,197.8319
1980-07-17 18:00:00 UTC,2444438.250000,25.9900,-96.1517,0700,-0.55,-1.40,1.5042,201.4477
1980-07-17 18:30:00 UTC,2444438.270833,25.9900,-96.1517,0700,-0.71,-1.32,1.4988,208.2749
1980-07-17 19:00:00 UTC,2444438.291667,25.9900,-96.1517,0700,-0.76,-1.29,1.4972,210.5043
1980-07-17 19:30:00 UTC,2444438.312500,25.9900,-96.1517,0700,-0.60,-1.37,1.4956,203.6513
1980-07-17 20:00:00 UTC,2444438.333333,25.9900,-96.1517,0700,-0.52,-1.41,1.5028,200.2437
1980-07-17 20:30:00 UTC,2444438.354167,25.9900,-96.1517,0700,-0.38,-1.45,1.4990,194.6852
1980-07-17 21:00:00 UTC,2444438.375000,25.9900,-96.1517,0700,-0.18,-1.49,1.5008,186.8883
1980-07-17 21:30:00 UTC,2444438.395833,25.9900,-96.1517,0700,-0.10,-1.50,1.5033,183.8141
1980-07-17 22:00:00 UTC,2444438.416667,25.9900,-96.1517,0700,0.59,-1.38,1.5008,156.8515
1980-07-17 22:30:00 UTC,2444438.437500,25.9900,-96.1517,0700,0.47,-1.42,1.4958,161.6862
1980-07-17 23:00:00 UTC,2444438.458333,25.9900,-96.1517,0700,0.91,-1.20,1.5060,142.8257
1980-07-17 23:30:00 UTC,2444438.479167,25.9900,-96.1517,0700,0.79,-1.28,1.5042,148.3176
1980-07-18 00:00:00 UTC,2444438.500000,25.9900,-96.1517,0700,0.60,-1.38,1.5048,156.5014
1980-07-18 00:30:00 UTC,2444438.520833,25.9900,-96.1517,0700,0.64,-1.36,1.5031,154.7989
1980-07-18 01:00:00 UTC,2444438.541667,25.9900,-96.1517,0700,1.00,-1.11,1.4940,137.9843
1980-07-18 01:30:00 UTC,2444438.562500,25.9900,-96.1517,0700,0.75,-1.30,1.5008,150.0183
1980-07-18 02:00:00 UTC,2444438.583333,25.9900,-96.1517,0700,0.63,-1.36,1.4988,155.1448
1980-07-18 02:30:00 UTC,2444438.604167,25.9900,-96.1517,0700,0.56,-1.39,1.4986,158.0566
1980-07-18 03:00:00 UTC,2444438.625000,25.9900,-96.1517,0700,0.29,-1.47,1.4983,168.8400
1980-07-18 03:30:00 UTC,2444438.645833,25.9900,-96.1517,0700,0.14,-1.49,1.4966,174.6323
1980-07-18 04:00:00 UTC,2444438.666667,25.9900,-96.1517,0700,0.49,-4.55,4.5763,173.8534
1980-07-18 04:30:00 UTC,2444438.687500,25.9900,-96.1517,0700,0.59,-6.23,6.2579,174.5900
1980-07-18 05:00:00 UTC,2444438.708333,25.9900,-96.1517,0700,0.94,-5.20,5.2843,169.7533
1980-07-18 05:30:00 UTC,2444438.729167,25.9900,-96.1517,0700,0.75,-3.52,3.5990,167.9720
1980-07-18 06:00:00 UTC,2444438.750000,25.9900,-96.1517,0700,-0.01,-2.48,2.4800,180.2310
1980-07-18 06:30:00 UTC,2444438.770833,25.9900,-96.1517,0700,0.23,-2.75,2.7596,175.2191
1980-07-18 07:00:00 UTC,2444438.791667,25.9900,-96.1517,0700,-0.04,-1.50,1.5005,181.5275
1980-07-18 07:30:00 UTC,2444438.812500,25.9900,-96.1517,0700,-0.64,-1.81,1.9198,199.4732
1980-07-18 08:00:00 UTC,2444438.833333,25.9900,-96.1517,0700,-1.81,-1.69,2.4763,226.9637
1980-07-18 08:30:00 UTC,2444438.854167,25.9900,-96.1517,0700,-3.69,-1.19,3.8771,252.1259
1980-07-18 09:00:00 UTC,2444438.875000,25.9900,-96.1517,0700,-4.02,-1.09,4.1652,254.8293
1980-07-18 09:30:00 UTC,2444438.895833,25.9900,-96.1517,0700,-3.03,-0.96,3.1784,252.4202
1980-07-18 10:00:00 UTC,2444438.916667,25.9900,-96.1517,0700,-1.46,-0.33,1.4968,257.2636
1980-07-18 10:30:00 UTC,2444438.937500,25.9900,-96.1517,0700,-3.41,-0.59,3.4607,260.1838
1980-07-18 11:00:00 UTC,2444438.958333,25.9900,-96.1517,0700,-3.60,-1.00,3.7363,254.4759
1980-07-18 11:30:00 UTC,2444438.979167,25.9900,-96.1517,0700,-3.86,0.37,3.8777,275.4754
1980-07-18 12:00:00 UTC,2444439.000000,25.9900,-96.1517,0700,-3.84,1.20,4.0231,287.3540
1980-07-18 12:30:00 UTC,2444439.020833,25.9900,-96.1517,0700,-4.27,-0.51,4.3003,263.1890
1980-07-18 13:00:00 UTC,2444439.041667,25.9900,-96.1517,0700,-4.44,-0.01,4.4400,269.8710
1980-07-18 13:30:00 UTC,2444439.062500,25.9900,-96.1517,0700,-3.30,0.34,3.3175,275.8824
1980-07-18 14:00:00 UTC,2444439.083333,25.9900,-96.1517,0700,-3.31,0.20,3.3160,273.4578
1980-07-18 14:30:00 UTC,2444439.104167,25.9900,-96.1517,0700,-2.88,-0.34,2.9000,263.2671
1980-07-18 15:00:00 UTC,2444439.125000,25.9900,-96.1517,0700,-2.02,-0.88,2.2034,246.4600
1980-07-18 15:30:00 UTC,2444439.145833,25.9900,-96.1517,0700,-2.94,-2.08,3.6014,234.7213
1980-07-18 16:00:00 UTC,2444439.166667,25.9900,-96.1517,0700,-2.07,-2.95,3.6038,215.0571
1980-07-18 16:30:00 UTC,2444439.187500,25.9900,-96.1517,0700,-0.61,-1.37,1.4997,204.0013
1980-07-18 17:00:00 UTC,2444439.208333,25.9900,-96.1517,0700,-0.21,-1.49,1.5047,188.0224
1980-07-18 17:30:00 UTC,2444439.229167,25.9900,-96.1517,0700,-0.09,-1.50,1.5027,183.4336
1980-07-18 18:00:00 UTC,2444439.250000,25.9900,-96.1517,0700,0.27,-1.48,1.5044,169.6611
1980-07-18 18:30:00 UTC,2444439.270833,25.9900,-96.1517,0700,0.37,-1.45,1.4965,165.6852
1980-07-18 19:00:00 UTC,2444439.291667,25.9900,-96.1517,0700,0.26,-1.48,1.5027,170.0362
1980-07-18 19:30:00 UTC,2444439.312500,25.9900,-96.1517,0700,0.15,-1.49,1.4975,174.2513
1980-07-18 20:00:00 UTC,2444439.333333,25.9900,-96.1517,0700,0.21,-1.48,1.4948,171.9241
1980-07-18 20:30:00 UTC,2444439.354167,25.9900,-96.1517,0700,1.13,-3.27,3.4597,160.9366
1980-07-18 21:00:00 UTC,2444439.375000,25.9900,-96.1517,0700,1.47,-3.44,3.7409,156.8617
1980-07-18 21:30:00 UTC,2444439.395833,25.9900,-96.1517,0700,0.85,-1.88,2.0632,155.6709
1980-07-18 22:00:00 UTC,2444439.416667,25.9900,-96.1517,0700,0.65,-1.51,1.6440,156.7099
1980-07-18 22:30:00 UTC,2444439.437500,25.9900,-96.1517,0700,1.76,-3.30,3.7400,151.9275
1980-07-18 23:00:00 UTC,2444439.458333,25.9900,-96.1517,0700,1.85,-3.57,4.0209,152.6065
1980-07-18 23:30:00 UTC,2444439.479167,25.9900,-96.1517,0700,1.88,-3.23,3.7373,149.7987
1980-07-19 00:00:00 UTC,2444439.500000,25.9900,-96.1517,0700,2.17,-3.39,4.0250,147.3759
1980-07-19 00:30:00 UTC,2444439.520833,25.9900,-96.1517,0700,3.08,-4.12,5.1440,143.2192
1980-07-19 01:00:00 UTC,2444439.541667,25.9900,-96.1517,0700,2.98,-4.36,5.2811,145.6479
1980-07-19 01:30:00 UTC,2444439.562500,25.9900,-96.1517,0700,3.24,-4.86,5.8410,146.3099
1980-07-19 02:00:00 UTC,2444439.583333,25.9900,-96.1517,0700,3.54,-3.12,4.7187,131.3915
1980-07-19 02:30:00 UTC,2444439.604167,25.9900,-96.1517,0700,3.67,-1.96,4.1606,118.1049
1980-07-19 03:00:00 UTC,2444439.625000,25.9900,-96.1517,0700,4.31,-1.54,4.5769,109.6622
1980-07-19 03:30:00 UTC,2444439.645833,25.9900,-96.1517,0700,4.86,-1.67,5.1389,108.9638
1980-07-19 04:00:00 UTC,2444439.666667,25.9900,-96.1517,0700,4.94,-1.40,5.1345,105.8228
1980-07-19 04:30:00 UTC,2444439.687500,25.9900,-96.1517,0700,4.77,-1.91,5.1382,111.8221
1980-07-19 05:00:00 UTC,2444439.708333,25.9900,-96.1517,0700,4.74,-3.16,5.6968,123.6901
1980-07-19 05:30:00 UTC,2444439.729167,25.9900,-96.1517,0700,3.55,-2.90,4.5839,129.2454
1980-07-19 06:00:00 UTC,2444439.750000,25.9900,-96.1517,0700,2.66,-3.02,4.0244,138.6266
1980-07-19 06:30:00 UTC,2444439.770833,25.9900,-96.1517,0700,1.53,-2.46,2.8970,148.1204
1980-07-19 07:00:00 UTC,2444439.791667,25.9900,-96.1517,0700,0.69,-1.33,1.4983,152.5798
1980-07-19 07:30:00 UTC,2444439.812500,25.9900,-96.1517,0700,1.04,-1.08,1.4993,136.0809
1980-07-19 08:00:00 UTC,2444439.833333,25.9900,-96.1517,0700,0.90,-1.20,1.5000,143.1301
1980-07-19 08:30:00 UTC,2444439.854167,25.9900,-96.1517,0700,1.09,-1.03,1.4997,133.3788
1980-07-19 09:00:00 UTC,2444439.875000,25.9900,-96.1517,0700,1.10,-1.02,1.5001,132.8389
1980-07-19 09:30:00 UTC,2444439.895833,25.9900,-96.1517,0700,0.99,-1.31,1.6420,142.9207
1980-07-19 10:00:00 UTC,2444439.916667,25.9900,-96.1517,0700,-0.93,-3.33,3.4574,195.6040
1980-07-19 10:30:00 UTC,2444439.937500,25.9900,-96.1517,0700,-2.88,-2.60,3.8800,227.9250
1980-07-19 11:00:00 UTC,2444439.958333,25.9900,-96.1517,0700,-2.16,-1.94,2.9033,228.0715
1980-07-19 11:30:00 UTC,2444439.979167,25.9900,-96.1517,0700,-1.06,-1.06,1.4991,225.0000
1980-07-19 12:00:00 UTC,2444440.000000,25.9900,-96.1517,0700,-1.16,-0.96,1.5057,230.3893
1980-07-19 12:30:00 UTC,2444440.020833,25.9900,-96.1517,0700,-1.21,-0.88,1.4962,233.9726
1980-07-19 13:00:00 UTC,2444440.041667,25.9900,-96.1517,0700,-1.28,-0.78,1.4989,238.6429
1980-07-19 13:30:00 UTC,2444440.062500,25.9900,-96.1517,0700,-2.37,-1.66,2.8935,234.9918
1980-07-19 14:00:00 UTC,2444440.083333,25.9900,-96.1517,0700,-2.60,-2.28,3.4581,228.7517
1980-07-19 14:30:00 UTC,2444440.104167,25.9900,-96.1517,0700,-2.32,-2.57,3.4623,222.0733
1980-07-19 15:00:00 UTC,2444440.125000,25.9900,-96.1517,0700,-2.02,-2.81,3.4607,215.7109
1980-07-19 15:30:00 UTC,2444440.145833,25.9900,-96.1517,0700,-1.63,-3.05,3.4582,208.1212
1980-07-19 16:00:00 UTC,2444440.166667,25.9900,-96.1517,0700,-0.90,-2.76,2.9030,198.0605
1980-07-19 16:30:00 UTC,2444440.187500,25.9900,-96.1517,0700,0.94,-3.04,3.1820,162.8178
1980-07-19 17:00:00 UTC,2444440.208333,25.9900,-96.1517,0700,0.87,-2.91,3.0373,163.3549
1980-07-19 17:30:00 UTC,2444440.229167,25.9900,-96.1517,0700,0.46,-1.43,1.5022,162.1681
1980-07-19 18:00:00 UTC,2444440.250000,25.9900,-96.1517,0700,0.63,-1.36,1.4988,155.1448
1980-07-19 18:30:00 UTC,2444440.270833,25.9900,-96.1517,0700,0.93,-1.18,1.5024,141.7571
1980-07-19 19:00:00 UTC,2444440.291667,25.9900,-96.1517,0700,1.69,-0.55,1.7772,108.0272
1980-07-19 19:30:00 UTC,2444440.312500,25.9900,-96.1517,0700,2.25,-1.05,2.4829,115.0169
1980-07-19 20:00:00 UTC,2444440.333333,25.9900,-96.1517,0700,1.40,-0.85,1.6378,121.2637
1980-07-19 20:30:00 UTC,2444440.354167,25.9900,-96.1517,0700,1.31,-0.74,1.5046,119.4615
1980-07-19 21:00:00 UTC,2444440.375000,25.9900,-96.1517,0700,1.18,-0.93,1.5024,128.2429
1980-07-19 21:30:00 UTC,2444440.395833,25.9900,-96.1517,0700,1.23,-0.85,1.4951,124.6467
1980-07-19 22:00:00 UTC,2444440.416667,25.9900,-96.1517,0700,1.25,-0.83,1.5005,123.5842
1980-07-19 22:30:00 UTC,2444440.437500,25.9900,-96.1517,0700,1.28,-0.78,1.4989,121.3571
1980-07-19 23:00:00 UTC,2444440.458333,25.9900,-96.1517,0700,1.31,-0.73,1.4997,119.1288
1980-07-19 23:30:00 UTC,2444440.479167,25.9900,-96.1517,0700,1.30,-0.75,1.5008,119.9816
1980-07-20 00:00:00 UTC,2444440.500000,25.9900,-96.1517,0700,1.27,-0.80,1.5010,122.2077
1980-07-20 00:30:00 UTC,2444440.520833,25.9900,-96.1517,0700,1.14,-0.97,1.4968,130.3937
1980-07-20 01:00:00 UTC,2444440.541667,25.9900,-96.1517,0700,0.23,-1.76,1.7750,172.5547
1980-07-20 01:30:00 UTC,2444440.562500,25.9900,-96.1517,0700,0.47,-1.42,1.4958,161.6862
1980-07-20 02:00:00 UTC,2444440.583333,25.9900,-96.1517,0700,0.23,-1.48,1.4978,171.1666
1980-07-20 02:30:00 UTC,2444440.604167,25.9900,-96.1517,0700,0.30,-1.47,1.5003,168.4654
1980-07-20 03:00:00 UTC,2444440.625000,25.9900,-96.1517,0700,0.43,-1.44,1.5028,163.3738
1980-07-20 03:30:00 UTC,2444440.645833,25.9900,-96.1517,0700,0.30,-1.47,1.5003,168.4654
1980-07-20 04:00:00 UTC,2444440.666667,25.9900,-96.1517,0700,0.06,-1.50,1.5012,177.7094
1980-07-20 04:30:00 UTC,2444440.687500,25.9900,-96.1517,0700,0.15,-1.49,1.4975,174.2513
1980-07-20 05:00:00 UTC,2444440.708333,25.9900,-96.1517,0700,-1.62,-0.25,1.6392,261.2273
1980-07-20 05:30:00 UTC,2444440.729167,25.9900,-96.1517,0700,-2.69,-0.62,2.7605,257.0209
1980-07-20 06:00:00 UTC,2444440.750000,25.9900,-96.1517,0700,-1.89,-0.34,1.9203,259.8019
1980-07-20 06:30:00 UTC,2444440.770833,25.9900,-96.1517,0700,-4.02,-0.13,4.0221,268.1478
1980-07-20 07:00:00 UTC,2444440.791667,25.9900,-96.1517,0700,-3.75,1.45,4.0206,291.1398
1980-07-20 07:30:00 UTC,2444440.812500,25.9900,-96.1517,0700,-1.81,0.64,1.9198,289.4731
1980-07-20 08:00:00 UTC,2444440.833333,25.9900,-96.1517,0700,-0.81,1.26,1.4979,327.2648
1980-07-20 08:30:00 UTC,2444440.854167,25.9900,-96.1517,0700,0.90,1.53,1.7751,30.4655
1980-07-20 09:00:00 UTC,2444440.875000,25.9900,-96.1517,0700,2.18,4.34,4.8567,26.6706
1980-07-20 09:30:00 UTC,2444440.895833,25.9900,-96.1517,0700,3.40,5.26,6.2632,32.8781
1980-07-20 10:00:00 UTC,2444440.916667,25.9900,-96.1517,0700,5.39,6.21,8.2229,40.9565
1980-07-20 10:30:00 UTC,2444440.937500,25.9900,-96.1517,0700,4.59,5.42,7.1024,40.2600
1980-07-20 11:00:00 UTC,2444440.958333,25.9900,-96.1517,0700,2.64,3.92,4.7261,33.9591
1980-07-20 11:30:00 UTC,2444440.979167,25.9900,-96.1517,0700,0.79,1.27,1.4957,31.8836
1980-07-20 12:00:00 UTC,2444441.000000,25.9900,-96.1517,0700,0.09,1.50,1.5027,3.4336
1980-07-20 12:30:00 UTC,2444441.020833,25.9900,-96.1517,0700,-1.85,2.75,3.3144,326.0702
1980-07-20 13:00:00 UTC,2444441.041667,25.9900,-96.1517,0700,-1.86,2.04,2.7607,317.6425
1980-07-20 13:30:00 UTC,2444441.062500,25.9900,-96.1517,0700,-3.10,4.10,5.1400,322.9072
1980-07-20 14:00:00 UTC,2444441.083333,25.9900,-96.1517,0700,-2.45,5.30,5.8389,335.1906
1980-07-20 14:30:00 UTC,2444441.104167,25.9900,-96.1517,0700,-2.82,4.13,5.0009,325.6744
1980-07-20 15:00:00 UTC,2444441.125000,25.9900,-96.1517,0700,-2.32,4.43,5.0007,332.3589
1980-07-20 15:30:00 UTC,2444441.145833,25.9900,-96.1517,0700,-2.85,4.78,5.5652,329.1952
1980-07-20 16:00:00 UTC,2444441.166667,25.9900,-96.1517,0700,-3.27,4.32,5.4181,322.8763
1980-07-20 16:30:00 UTC,2444441.187500,25.9900,-96.1517,0700,-3.98,4.65,6.1207,319.4393
1980-07-20 17:00:00 UTC,2444441.208333,25.9900,-96.1517,0700,-3.13,4.42,5.4160,324.6960
1980-07-20 17:30:00 UTC,2444441.229167,25.9900,-96.1517,0700,-3.24,1.56,3.5960,295.7100
1980-07-20 18:00:00 UTC,2444441.250000,25.9900,-96.1517,0700,-5.61,-1.01,5.7002,259.7941
1980-07-20 18:30:00 UTC,2444441.270833,25.9900,-96.1517,0700,-8.11,-3.71,8.9183,245.4178
1980-07-20 19:00:00 UTC,2444441.291667,25.9900,-96.1517,0700,-7.58,-2.35,7.9359,252.7752
1980-07-20 19:30:00 UTC,2444441.312500,25.9900,-96.1517,0700,-8.41,-5.23,9.9036,238.1234
1980-07-20 20:00:00 UTC,2444441.333333,25.9900,-96.1517,0700,-9.17,-6.60,11.2982,234.2560
1980-07-20 20:30:00 UTC,2444441.354167,25.9900,-96.1517,0700,-8.72,-8.04,11.8609,227.3234
1980-07-20 21:00:00 UTC,2444441.375000,25.9900,-96.1517,0700,-11.17,-8.14,13.8213,233.9178
1980-07-20 21:30:00 UTC,2444441.395833,25.9900,-96.1517,0700,-11.87,-7.08,13.8211,239.1855
1980-07-20 22:00:00 UTC,2444441.416667,25.9900,-96.1517,0700,-14.07,-2.99,14.3842,258.0026
1980-07-20 22:30:00 UTC,2444441.437500,25.9900,-96.1517,0700,-12.27,-4.64,13.1180,249.2855
1980-07-20 23:00:00 UTC,2444441.458333,25.9900,-96.1517,0700,-11.79,-1.32,11.8637,263.6118
1980-07-20 23:30:00 UTC,2444441.479167,25.9900,-96.1517,0700,-8.38,-5.00,9.7583,239.1772
1980-07-21 00:00:00 UTC,2444441.500000,25.9900,-96.1517,0700,-8.75,-5.74,10.4647,236.7351
1980-07-21 00:30:00 UTC,2444441.520833,25.9900,-96.1517,0700,-6.40,-3.07,7.0982,244.3736
1980-07-21 01:00:00 UTC,2444441.541667,25.9900,-96.1517,0700,-6.18,0.97,6.2557,278.9203
1980-07-21 01:30:00 UTC,2444441.562500,25.9900,-96.1517,0700,-7.08,-0.58,7.1037,265.3167
1980-07-21 02:00:00 UTC,2444441.583333,25.9900,-96.1517,0700,-6.99,-1.22,7.0957,260.0996
1980-07-21 02:30:00 UTC,2444441.604167,25.9900,-96.1517,0700,-7.77,-2.20,8.0754,254.1911
1980-07-21 03:00:00 UTC,2444441.625000,25.9900,-96.1517,0700,-8.50,-1.54,8.6384,259.7307
1980-07-21 03:30:00 UTC,2444441.645833,25.9900,-96.1517,0700,-6.76,0.90,6.8196,277.5836
1980-07-21 04:00:00 UTC,2444441.666667,25.9900,-96.1517,0700,-5.69,-0.29,5.6974,267.0824
1980-07-21 04:30:00 UTC,2444441.687500,25.9900,-96.1517,0700,-5.78,-0.86,5.8436,261.5371
1980-07-21 05:00:00 UTC,2444441.708333,25.9900,-96.1517,0700,-6.68,-0.10,6.6807,269.1423
1980-07-21 05:30:00 UTC,2444441.729167,25.9900,-96.1517,0700,-8.44,-1.00,8.4990,263.2429
1980-07-21 06:00:00 UTC,2444441.750000,25.9900,-96.1517,0700,-10.17,-0.33,10.1754,268.1415
1980-07-21 06:30:00 UTC,2444441.770833,25.9900,-96.1517,0700,-12.84,-0.03,12.8400,269.8661
1980-07-21 07:00:00 UTC,2444441.791667,25.9900,-96.1517,0700,-15.99,1.53,16.0630,275.4657
1980-07-21 07:30:00 UTC,2444441.812500,25.9900,-96.1517,0700,-10.71,4.76,11.7201,293.9625
1980-07-21 08:00:00 UTC,2444441.833333,25.9900,-96.1517,0700,-10.18,5.53,11.5850,298.5118
1980-07-21 08:30:00 UTC,2444441.854167,25.9900,-96.1517,0700,-7.58,3.53,8.3617,294.9714
1980-07-21 09:00:00 UTC,2444441.875000,25.9900,-96.1517,0700,-7.60,4.94,9.0644,303.0239
1980-07-21 09:30:00 UTC,2444441.895833,25.9900,-96.1517,0700,-6.34,5.66,8.4989,311.7567
1980-07-21 10:00:00 UTC,2444441.916667,25.9900,-96.1517,0700,-4.37,5.23,6.8154,320.1191
1980-07-21 10:30:00 UTC,2444441.937500,25.9900,-96.1517,0700,-4.54,7.51,8.7756,328.8459
1980-07-21 11:00:00 UTC,2444441.958333,25.9900,-96.1517,0700,-5.85,7.64,9.6225,322.5585
1980-07-21 11:30:00 UTC,2444441.979167,25.9900,-96.1517,0700,-8.66,9.29,12.7004,317.0101
1980-07-21 12:00:00 UTC,2444442.000000,25.9900,-96.1517,0700,-9.90,11.01,14.8064,318.0387
1980-07-21 12:30:00 UTC,2444442.020833,25.9900,-96.1517,0700,-9.12,9.43,13.1187,315.9574
1980-07-21 13:00:00 UTC,2444442.041667,25.9900,-96.1517,0700,-10.46,9.45,14.0966,312.0960
1980-07-21 13:30:00 UTC,2444442.062500,25.9900,-96.1517,0700,-10.27,9.87,14.2439,313.8622
1980-07-21 14:00:00 UTC,2444442.083333,25.9900,-96.1517,0700,-8.20,8.37,11.7174,315.5878
1980-07-21 14:30:00 UTC,2444442.104167,25.9900,-96.1517,0700,-7.84,6.92,10.4572,311.4333
1980-07-21 15:00:00 UTC,2444442.125000,25.9900,-96.1517,0700,-7.61,7.97,11.0197,316.3237
1980-07-21 15:30:00 UTC,2444442.145833,25.9900,-96.1517,0700,-8.55,8.02,11.7228,313.1680
1980-07-21 16:00:00 UTC,2444442.166667,25.9900,-96.1517,0700,-6.11,7.79,9.9003,321.8915
1980-07-21 16:30:00 UTC,2444442.187500,25.9900,-96.1517,0700,-3.10,8.36,8.9163,339.6545
1980-07-21 17:00:00 UTC,2444442.208333,25.9900,-96.1517,0700,-2.37,8.60,8.9206,344.5928
1980-07-21 17:30:00 UTC,2444442.229167,25.9900,-96.1517,0700,-0.29,7.65,7.6555,357.8290
1980-07-21 18:00:00 UTC,2444442.250000,25.9900,-96.1517,0700,-0.49,4.69,4.7155,354.0355
1980-07-21 18:30:00 UTC,2444442.270833,25.9900,-96.1517,0700,0.71,4.10,4.1610,9.8245
1980-07-21 19:00:00 UTC,2444442.291667,25.9900,-96.1517,0700,1.78,4.37,4.7186,22.1622
1980-07-21 19:30:00 UTC,2444442.312500,25.9900,-96.1517,0700,1.80,3.28,3.7414,28.7571
1980-07-21 20:00:00 UTC,2444442.333333,25.9900,-96.1517,0700,0.94,1.67,1.9164,29.3740
1980-07-21 20:30:00 UTC,2444442.354167,25.9900,-96.1517,0700,0.87,1.22,1.4984,35.4932
1980-07-21 21:00:00 UTC,2444442.375000,25.9900,-96.1517,0700,0.57,1.39,1.5023,22.2972
1980-07-21 21:30:00 UTC,2444442.395833,25.9900,-96.1517,0700,-2.19,0.22,2.2010,275.7365
1980-07-21 22:00:00 UTC,2444442.416667,25.9900,-96.1517,0700,-3.44,-0.39,3.4620,263.5319
1980-07-21 22:30:00 UTC,2444442.437500,25.9900,-96.1517,0700,-2.97,-1.14,3.1813,249.0013
1980-07-21 23:00:00 UTC,2444442.458333,25.9900,-96.1517,0700,-4.55,-1.26,4.7212,254.5214
1980-07-21 23:30:00 UTC,2444442.479167,25.9900,-96.1517,0700,-5.65,-1.49,5.8432,255.2265
1980-07-22 00:00:00 UTC,2444442.500000,25.9900,-96.1517,0700,-6.36,-0.75,6.4041,263.2745
1980-07-22 00:30:00 UTC,2444442.520833,25.9900,-96.1517,0700,-5.95,1.94,6.2583,288.0586
1980-07-22 01:00:00 UTC,2444442.541667,25.9900,-96.1517,0700,-3.60,1.79,4.0205,296.4376
1980-07-22 01:30:00 UTC,2444442.562500,25.9900,-96.1517,0700,-5.95,1.43,6.1194,283.5139
1980-07-22 02:00:00 UTC,2444442.583333,25.9900,-96.1517,0700,-3.40,3.27,4.7173,313.8834
1980-07-22 02:30:00 UTC,2444442.604167,25.9900,-96.1517,0700,-1.91,2.37,3.0438,321.1344
1980-07-22 03:00:00 UTC,2444442.625000,25.9900,-96.1517,0700,0.60,1.97,2.0593,16.9391
1980-07-22 03:30:00 UTC,2444442.645833,25.9900,-96.1517,0700,2.24,2.05,3.0365,47.5359
1980-07-22 04:00:00 UTC,2444442.666667,25.9900,-96.1517,0700,2.63,2.46,3.6012,46.9129
1980-07-22 04:30:00 UTC,2444442.687500,25.9900,-96.1517,0700,1.82,3.74,4.1593,25.9490
1980-07-22 05:00:00 UTC,2444442.708333,25.9900,-96.1517,0700,0.67,5.94,5.9777,6.4355
1980-07-22 05:30:00 UTC,2444442.729167,25.9900,-96.1517,0700,2.37,5.64,6.1177,22.7928
1980-07-22 06:00:00 UTC,2444442.750000,25.9900,-96.1517,0700,2.64,5.52,6.1188,25.5600
1980-07-22 06:30:00 UTC,2444442.770833,25.9900,-96.1517,0700,3.35,4.26,5.4194,38.1810
1980-07-22 07:00:00 UTC,2444442.791667,25.9900,-96.1517,0700,2.65,3.02,4.0178,41.2664
1980-07-22 07:30:00 UTC,2444442.812500,25.9900,-96.1517,0700,3.72,0.35,3.7364,84.6251
1980-07-22 08:00:00 UTC,2444442.833333,25.9900,-96.1517,0700,1.78,0.01,1.7800,89.6781
1980-07-22 08:30:00 UTC,2444442.854167,25.9900,-96.1517,0700,1.71,-0.51,1.7844,106.6070
1980-07-22 09:00:00 UTC,2444442.875000,25.9900,-96.1517,0700,1.63,-0.16,1.6378,95.6062
1980-07-22 09:30:00 UTC,2444442.895833,25.9900,-96.1517,0700,1.35,-0.66,1.5027,116.0535
1980-07-22 10:00:00 UTC,2444442.916667,25.9900,-96.1517,0700,1.44,-0.42,1.5000,106.2602
1980-07-22 10:30:00 UTC,2444442.937500,25.9900,-96.1517,0700,1.47,-0.28,1.4964,100.7843
1980-07-22 11:00:00 UTC,2444442.958333,25.9900,-96.1517,0700,1.47,-0.32,1.5044,102.2810
1980-07-22 11:30:00 UTC,2444442.979167,25.9900,-96.1517,0700,1.47,-0.32,1.5044,102.2810
1980-07-22 12:00:00 UTC,2444443.000000,25.9900,-96.1517,0700,1.49,-0.18,1.5008,96.8883
1980-07-22 12:30:00 UTC,2444443.020833,25.9900,-96.1517,0700,1.50,-0.06,1.5012,92.2906
1980-07-22 13:00:00 UTC,2444443.041667,25.9900,-96.1517,0700,1.50,-0.06,1.5012,92.2906
1980-07-22 13:30:00 UTC,2444443.062500,25.9900,-96.1517,0700,1.50,-0.11,1.5040,94.1942
1980-07-22 14:00:00 UTC,2444443.083333,25.9900,-96.1517,0700,1.49,0.18,1.5008,83.1117
1980-07-22 14:30:00 UTC,2444443.104167,25.9900,-96.1517,0700,5.54,1.33,5.6974,76.5004
1980-07-22 15:00:00 UTC,2444443.125000,25.9900,-96.1517,0700,6.82,-0.10,6.8207,90.8400
1980-07-22 15:30:00 UTC,2444443.145833,25.9900,-96.1517,0700,6.79,-0.68,6.8240,95.7189
1980-07-22 16:00:00 UTC,2444443.166667,25.9900,-96.1517,0700,5.54,-0.42,5.5559,94.3354
1980-07-22 16:30:00 UTC,2444443.187500,25.9900,-96.1517,0700,5.39,-0.57,5.4201,96.0367
1980-07-22 17:00:00 UTC,2444443.208333,25.9900,-96.1517,0700,5.70,-0.08,5.7006,90.8041
1980-07-22 17:30:00 UTC,2444443.229167,25.9900,-96.1517,0700,8.03,-1.76,8.2206,102.3625
1980-07-22 18:00:00 UTC,2444443.250000,25.9900,-96.1517,0700,7.29,-2.76,7.7950,110.7367
1980-07-22 18:30:00 UTC,2444443.270833,25.9900,-96.1517,0700,5.68,-2.27,6.1168,111.7840
1980-07-22 19:00:00 UTC,2444443.291667,25.9900,-96.1517,0700,4.53,-1.32,4.7184,106.2456
1980-07-22 19:30:00 UTC,2444443.312500,25.9900,-96.1517,0700,4.40,-1.28,4.5824,106.2202
1980-07-22 20:00:00 UTC,2444443.333333,25.9900,-96.1517,0700,5.94,-1.96,6.2550,108.2611
1980-07-22 20:30:00 UTC,2444443.354167,25.9900,-96.1517,0700,5.32,-2.05,5.7013,111.0736
1980-07-22 21:00:00 UTC,2444443.375000,25.9900,-96.1517,0700,4.17,-1.05,4.3002,104.1332
1980-07-22 21:30:00 UTC,2444443.395833,25.9900,-96.1517,0700,2.82,-1.13,3.0380,111.8364
1980-07-22 22:00:00 UTC,2444443.416667,25.9900,-96.1517,0700,2.61,-1.25,2.8939,115.5910
1980-07-22 22:30:00 UTC,2444443.437500,25.9900,-96.1517,0700,2.45,-3.19,4.0223,142.4748
1980-07-22 23:00:00 UTC,2444443.458333,25.9900,-96.1517,0700,1.76,-1.55,2.3452,131.3698
1980-07-22 23:30:00 UTC,2444443.479167,25.9900,-96.1517,0700,1.08,-1.04,1.4993,133.9191
1980-07-23 00:00:00 UTC,2444443.500000,25.9900,-96.1517,0700,-0.41,-2.73,2.7606,188.5410
1980-07-23 00:30:00 UTC,2444443.520833,25.9900,-96.1517,0700,-1.38,-3.92,4.1558,199.3942
1980-07-23 01:00:00 UTC,2444443.541667,25.9900,-96.1517,0700,-4.54,-4.51,6.3994,225.1899
1980-07-23 01:30:00 UTC,2444443.562500,25.9900,-96.1517,0700,-5.75,-3.11,6.5372,241.5924
1980-07-23 02:00:00 UTC,2444443.583333,25.9900,-96.1517,0700,-4.90,-0.98,4.9970,258.6901
1980-07-23 02:30:00 UTC,2444443.604167,25.9900,-96.1517,0700,-4.10,0.72,4.1627,279.9601
1980-07-23 03:00:00 UTC,2444443.625000,25.9900,-96.1517,0700,-3.28,1.11,3.4627,288.6966
1980-07-23 03:30:00 UTC,2444443.645833,25.9900,-96.1517,0700,-1.80,1.49,2.3367,309.6172
1980-07-23 04:00:00 UTC,2444443.666667,25.9900,-96.1517,0700,-1.58,0.43,1.6375,285.2244
1980-07-23 04:30:00 UTC,2444443.687500,25.9900,-96.1517,0700,-0.59,1.38,1.5008,336.8515
1980-07-23 05:00:00 UTC,2444443.708333,25.9900,-96.1517,0700,0.43,1.44,1.5028,16.6262
1980-07-23 05:30:00 UTC,2444443.729167,25.9900,-96.1517,0700,2.29,0.48,2.3398,78.1618
1980-07-23 06:00:00 UTC,2444443.750000,25.9900,-96.1517,0700,2.72,0.46,2.7586,80.4011
1980-07-23 06:30:00 UTC,2444443.770833,25.9900,-96.1517,0700,4.71,0.28,4.7183,86.5979